Location: Slidell
(30.2789°N, 89.7378°W)
Time: 08:46:21
(UTC-05:00)

Cosmos 2360 Rocket - Visible Passes

Search period start: 27 May 2017 00:00
Search period end: 06 June 2017 00:00
Orbit: 832 x 847 km, 71.0° (Epoch: 26 May)

Date Brightness Start Highest point End Pass type
(mag) Time Alt. Az. Time Alt. Az. Time Alt. Az.
27 May 3.9 01:17:33 10° NNW 01:20:11 28° N 01:20:11 28° N visible
28 May 3.9 01:01:54 10° NNW 01:04:36 29° N 01:04:36 29° N visible
29 May 3.9 00:46:15 10° NNW 00:49:03 29° N 00:49:03 29° N visible
30 May 3.8 00:30:37 10° N 00:33:33 30° N 00:33:33 30° N visible
31 May 3.7 00:14:58 10° N 00:18:04 31° N 00:18:04 31° N visible
31 May 3.6 23:59:20 10° N 00:02:38 32° NNE 00:02:38 32° NNE visible
01 Jun 3.5 23:43:43 10° N 23:47:13 33° NNE 23:47:13 33° NNE visible
02 Jun 3.4 23:28:06 10° N 23:31:50 34° NNE 23:31:50 34° NNE visible
03 Jun 4.7 01:13:07 10° NW 01:13:36 12° WNW 01:13:36 12° WNW visible
03 Jun 3.3 23:12:29 10° N 23:16:29 34° NE 23:16:29 34° NE visible
04 Jun 4.6 00:57:17 10° NW 00:58:15 14° WNW 00:58:15 14° WNW visible
04 Jun 3.3 22:56:52 10° N 23:01:10 34° NE 23:01:10 34° NE visible
05 Jun 4.5 00:41:27 10° NW 00:42:55 16° WNW 00:42:55 16° WNW visible
05 Jun 3.2 22:41:17 10° N 22:45:52 33° NE 22:45:52 33° NE visible
